#timestamp,LO_Frequency,Hit 
1499025615.4,286047065.3,N
1499025635.2,286047066.5,N
1499025655.1,286047066.2,N
1499025656.0,286047066.2,N
1499025675.8,286047066.2,N
1499025695.6,286047062.8,N
1499025715.5,286047064.7,N
1499025735.3,286047066.6,N
1499025755.1,286047066.0,N
1499025775.9,286047066.0,N
1499025795.7,286047065.6,N
1499025815.5,286047070.0,N
1499025835.4,286047068.2,N
1499025855.2,286047067.4,N
1499025875.0,286047068.4,N
1499025875.9,286047068.4,N
1499025895.8,286047066.1,N
1499025915.6,286047068.4,N
1499025935.4,286047068.2,N
1499025955.2,286047065.0,N
1499025975.1,286047065.1,N
1499025976.0,286047065.1,N
1499025995.8,286047062.2,N
1499026015.6,286047062.5,N
1499026035.5,286047065.1,N
1499026055.3,286047062.9,N
1499026075.1,286047061.5,N
1499026095.9,286047061.6,N
1499026115.7,286047062.8,N
1499026135.5,286047062.9,N
1499026155.4,286047063.5,N
1499026175.2,286047063.1,N
1499026195.0,286047063.1,N
1499026195.9,286047063.1,N
1499026215.8,286047063.1,N
1499026235.6,286047062.9,N
1499026255.4,286047062.8,N
1499026275.2,286047062.5,N
1499026295.1,286047062.4,N
1499026296.0,286047062.4,N
1499026315.8,286047060.5,N
1499026335.6,286047056.5,N
1499026355.5,286047054.9,N
1499026375.3,286047054.6,N
1499026395.1,286047061.7,N
1499026415.9,286047063.3,N
1499026435.7,286047061.9,N
1499026455.5,286047063.4,N
1499026475.4,286047063.1,N
1499026495.2,286047059.5,N
1499026515.0,286047059.3,N
1499026515.9,286047059.3,N
1499026535.8,286047062.6,N
1499026555.6,286047065.2,N
1499026575.4,286047067.4,N
1499026595.3,286047071.3,N
1499026615.1,286047071.3,N
1499026616.0,286047071.3,N
1499026635.8,286047071.1,N
1499026655.7,286047069.9,N
1499026675.5,286047065.3,N
1499026695.3,286047071.2,N
1499026715.1,286047069.1,N
1499026735.9,286047069.5,N
1499026755.7,286047066.9,N
1499026775.5,286047067.4,N
1499026795.4,286047067.5,N
1499026815.2,286047070.0,N
1499026835.0,286047069.4,N
1499026835.9,286047069.4,N
1499026855.8,286047071.2,N
1499026875.6,286047068.1,N
1499026895.4,286047067.3,N
1499026915.3,286047070.0,N
1499026935.1,286047070.1,N
1499026936.0,286047070.1,N
1499026955.8,286047074.0,N
1499026975.7,286047079.1,N
1499026995.8,286047079.3,N
1499027015.6,286047082.1,N
1499027035.4,286047080.3,N
1499027055.3,286047078.5,N
1499027075.1,286047081.1,N
1499027095.8,286047081.6,N
1499027115.7,286047082.1,N
1499027135.5,286047082.2,N
1499027155.3,286047077.0,N
1499027175.2,286047078.2,N
1499027195.9,286047078.7,N
1499027215.7,286047077.4,N
1499027235.6,286047079.6,N
1499027255.4,286047075.9,N
1499027275.2,286047077.1,N
1499027295.1,286047077.6,N
1499027296.0,286047077.6,N
1499027315.8,286047075.0,N
1499027335.6,286047075.0,N
1499027355.5,286047075.7,N
1499027375.3,286047078.0,N
1499027395.1,286047074.8,N
1499027415.8,286047071.9,N
1499027435.7,286047073.0,N
1499027455.5,286047072.2,N
1499027475.3,286047070.2,N
1499027495.2,286047070.3,N
1499027515.9,286047072.0,N
1499027535.7,286047071.9,N
1499027555.6,286047075.9,N
1499027575.4,286047075.0,N
1499027595.2,286047075.1,N
1499027615.1,286047073.3,N
1499027616.0,286047073.3,N
1499027635.8,286047074.9,N
1499027655.6,286047073.9,N
1499027675.5,286047074.6,N
1499027695.3,286047076.0,N
1499027715.1,286047076.1,N
1499027735.8,286047074.1,N
1499027755.7,286047073.6,N
1499027775.5,286047075.7,N
1499027795.3,286047074.2,N
1499027815.2,286047073.3,N
1499027835.9,286047076.1,N
1499027855.7,286047077.0,N
1499027875.6,286047078.8,N
1499027895.4,286047080.6,N
1499027915.2,286047078.4,N
1499027935.1,286047080.1,N
1499027936.0,286047080.1,N
1499027955.8,286047080.4,N
1499027975.6,286047079.1,N
1499027995.5,286047079.4,N
1499028015.3,286047077.1,N
1499028035.1,286047075.3,N
1499028055.8,286047076.2,N
1499028075.7,286047077.0,N
1499028095.5,286047075.6,N
1499028115.3,286047075.8,N
1499028135.2,286047076.4,N
1499028155.9,286047077.6,N
1499028175.7,286047077.6,N
1499028195.6,286047076.2,N
1499028215.4,286047077.2,N
1499028235.2,286047078.1,N
1499028255.1,286047080.8,Y
1499028256.0,286047080.8,Y
1499028275.8,286046991.2,N
1499028295.6,286046989.1,N
1499028315.5,286046986.7,N
1499028335.3,286046982.5,N
1499028355.1,286046985.7,N
1499028375.9,286046985.5,N
1499028395.7,286046986.2,N
1499028415.5,286046983.7,N
1499028435.4,286046984.6,N
1499028455.2,286046987.8,N
1499028475.0,286046985.5,N
1499028475.9,286046985.5,N
1499028495.8,286046986.0,N
1499028515.6,286046985.7,N
1499028535.4,286046985.5,N
1499028555.3,286046986.5,N
1499028575.1,286046985.6,N
1499028576.0,286046985.6,N
1499028595.8,286046986.8,N
1499028615.6,286046986.6,N
1499028635.5,286046987.7,N
1499028655.3,286046988.1,N
1499028675.1,286046987.1,N
1499028695.9,286046989.3,N
1499028715.7,286046989.2,N
1499028735.5,286046989.6,N
1499028755.4,286046987.3,N
1499028775.2,286046986.1,N
1499028795.0,286046985.4,N
1499028795.9,286046985.4,N
1499028815.8,286046985.4,N
1499028835.6,286046985.5,N
1499028855.4,286046986.0,N
1499028875.2,286046984.2,N
1499028895.1,286046985.2,N
1499028896.0,286046985.2,N
1499028915.8,286046985.9,N
1499028935.6,286046987.8,N
1499028955.5,286046986.2,N
1499028975.3,286046985.6,N
1499028995.1,286046987.2,N
1499029015.9,286046987.1,N
1499029035.7,286046987.0,N
1499029055.5,286046986.1,N
1499029075.4,286046988.1,N
1499029095.2,286046991.4,N
1499029115.0,286046990.8,N
1499029115.9,286046990.8,N
1499029135.8,286046990.6,N
1499029155.6,286046992.6,N
1499029175.4,286046994.0,N
1499029195.3,286046993.3,N
